Regional Weather Roundup
Issued by NWS

Home | Current Version | Previous Version | Text Only | Print | Product List | Glossary Off
Versions: 1 2 3 4 5 6 7 8 9 10 11 12 13 14 15 16 17 18 19 20 21 22 23 24 25 26 27 28

000
ASUS45 KPSR 190910
RWRAZ

ARIZONA HOURLY REGIONAL WEATHER ROUNDUP
NATIONAL WEATHER SERVICE PHOENIX AZ
200 AM MST SUN FEB 19 2017

NOTE: FAIR INDICATES FEW OR NO CLOUDS BELOW 12,000 FEET WITH NO
SIGNIFICANT WEATHER AND/OR OBSTRUCTIONS TO VISIBILITY.

AZZ001>003-036-191000-
NORTHWEST ARIZONA

CITY           SKY/WX    TMP DP  RH WIND       PRES   REMARKS
BULLHEAD CITY  CLOUDY    54  52  94 SW9G16    29.73R
KINGMAN        LGT RAIN  45  42  89 VRB3      29.73R
$$

AZZ004>008-015-016-018-191000-
NORTH CENTRAL ARIZONA

CITY           SKY/WX    TMP DP  RH WIND       PRES   REMARKS
GRAND CANYON   LGT SNOW  33  33 100 SW8       29.75R FOG     WCI  26
WILLIAMS       CLOUDY    32  30  93 SE13      29.74F WCI  22
PRESCOTT       CLOUDY    36  36 100 SE9       29.75S WCI  29
FLAGSTAFF      LGT SNOW  30  29  96 SW12      29.75R FOG     WCI  20
PAYSON         DRIZZLE   36  36 100 S5        29.81F WCI  32
PAGE           CLOUDY    45  39  79 SW3       29.70R
$$

AZZ009>014-017-191000-
NORTHEAST ARIZONA

CITY           SKY/WX    TMP DP  RH WIND       PRES   REMARKS
WINSLOW        MOCLDY    42  36  79 S7        29.75S
SAINT JOHNS    CLOUDY    43  32  65 CALM      29.76S
WINDOW ROCK    CLOUDY    37  33  85 S7        29.79F WCI  32
SHOW LOW       MOCLDY    32  30  93 S17G25    29.77R WCI  21
$$

AZZ023-191000-
GREATER PHOENIX AREA

CITY           SKY/WX    TMP DP  RH WIND       PRES   REMARKS
PHOENIX        LGT RAIN  51  49  92 E9        29.77S
BUCKEYE        CLOUDY    50  50 100 E8        29.78R
LUKE AFB       CLOUDY    52  52 100 SE9       29.76S
DEER VALLEY    LGT RAIN  49  49 100 SE10      29.77S
SCOTTSDALE     LGT RAIN  50  47  89 E3        29.81S
MESA-GATEWAY   LGT RAIN  50  46  87 E7        29.80S
$$

AZZ027-028-191000-
SOUTHWEST MARICOPA COUNTY AND PINAL COUNTY

CITY           SKY/WX    TMP DP  RH WIND       PRES   REMARKS
CASA GRANDE    NOT AVBL
GILA BEND      LGT RAIN  54  48  82 CALM      29.77R
$$

AZZ503-504-507>509-191000-
SOUTHEAST ARIZONA

CITY           SKY/WX    TMP DP  RH WIND       PRES   REMARKS
TUCSON         MOCLDY    49  38  65 S7        29.84R
DAVIS-MONTHAN  CLOUDY    48  39  72 CALM      29.82S
NOGALES        CLOUDY    42  38  85 SE8       29.83R
SIERRA VISTA   LGT RAIN  39  37  93 CALM      29.84R
DOUGLAS        CLOUDY    41  36  82 S12       29.86R
SAFFORD        PTCLDY    45  36  70 E7        29.81R
$$

AZZ020-021-025-026-031-191000-
SOUTHWEST ARIZONA

CITY           SKY/WX    TMP DP  RH WIND       PRES   REMARKS
YUMA           CLOUDY    55  52  89 S3        29.75R
$$

CAZ031-033-041-043-047-048-061-191000-
SOUTHERN CALIFORNIA

CITY           SKY/WX    TMP DP  RH WIND       PRES   REMARKS
DOWNTOWN L.A.  CLOUDY    55  52  89 E3        29.75R
L.A. AIRPORT   PTCLDY    51  50  96 NE6       29.74S
SAN DIEGO      CLOUDY    57  49  74 W12       29.81R
BURBANK        MOCLDY    49  46  90 N3        29.74S
ONTARIO        CLOUDY    52  49  89 SW5       29.76R
RIVERSIDE      CLOUDY    52  50  93 CALM      29.76R
PALM SPRINGS   CLOUDY    56  55  97 CALM      29.75S FOG
EL CENTRO NAS  CLEAR     52  50  93 SE7       29.74S
IMPERIAL       PTCLDY    54  52  93 S8        29.72S
BLYTHE         CLOUDY    54  54 100 SE7       29.73R
NEEDLES        LGT RAIN  54  50  86 SE7       29.72R
$$

NVZ020-UTZ003-191000-
SOUTHERN NEVADA-UTAH

CITY           SKY/WX    TMP DP  RH WIND       PRES   REMARKS
LAS VEGAS      LGT RAIN  51  48  89 CALM      29.67R
SALT LAKE CITY CLOUDY    50  35  56 S13       29.60R
$$

NMZ009-TXZ055-191000-
NEW MEXICO-WEST TEXAS

CITY           SKY/WX    TMP DP  RH WIND       PRES   REMARKS
ALBUQUERQUE    CLOUDY    44  30  57 N7        29.80R
EL PASO        LGT RAIN  50  35  56 W9        29.82F
$$


........................KEY........................
SKY/WX - SKY CONDITION/WEATHER
TMP    - TEMPERATURE IN FAHRENHEIT
DP     - DEW POINT IN FAHRENHEIT
RH     - RELATIVE HUMIDITY IN PERCENT
WIND   - DIRECTION AND SPEED IN MILES PER HOUR (MPH)
VRB    - VARIABLE WIND DIRECTION
PRES   - MEAN SEA LEVEL PRESSURE IN INCHES OF MERCURY
         F - FALLING PRESSURE   R - RISING PRESSURE
         S - STEADY PRESSURE
VSB    - VISIBILITY IN MILES
HX     - HEAT INDEX IN FAHRENHEIT
WCI    - WIND CHILL INDEX IN FAHRENHEIT
TC     - TEMPERATURE IN CELSIUS WHICH IS ALSO KNOWN AS
         TEMPERATURE IN CENTIGRADE
AFB    - AIR FORCE BASE
         LUKE AFB IS LUKE AIR FORCE BASE
         DAVIS-MONTHAN IS DAVIS-MONTHAN AIR FORCE BASE
NAS    - NAVAL AIR STATION
         EL CENTRO NAS IS EL CENTRO NAVAL AIR STATION
N/A    - NOT AVAILABLE





USA.gov is the U.S. government's official web portal to all federal, state and local government web resources and services.